Theta_e
319 318 317 316 315 315 314 313 313 313 313 312 312 311 312 312 314 313 313 312 313 312 311 312 312 312 311 311 311 311 310 310 309 307 308 309 308 310 311 312 315 317
318 318 317 315 315 314 313 314 313 313 312 311 312 311 311 312 312 313 312 313 312 310 309 309 310 310 310 310 309 309 309 309 309 311 307 307 307 308 308 310 313 315
317 317 316 315 314 313 313 312 313 312 312 311 311 311 311 311 311 311 311 311 310 309 308 309 309 309 309 309 309 309 307 307 308 308 309 306 307 307 306 308 312 315
317 317 316 315 314 312 312 312 310 311 311 311 311 311 312 312 311 310 312 314 309 308 308 309 309 308 308 307 308 307 307 307 307 308 307 307 308 307 307 309 309 311
317 316 316 315 313 313 312 312 311 311 312 311 310 311 312 310 310 310 309 308 308 308 308 308 308 308 308 308 308 308 309 307 306 307 307 307 307 309 308 309 308 308
316 316 316 314 313 313 312 312 312 312 311 310 311 312 309 310 310 309 309 308 308 308 308 308 308 308 308 308 307 307 307 307 306 307 307 307 308 308 308 308 308 307
316 316 315 314 313 313 312 311 312 312 312 312 311 310 310 310 309 308 308 309 308 309 309 309 309 308 308 308 308 306 306 306 307 307 308 307 309 309 309 309 308 307
316 316 315 314 313 313 312 312 311 311 311 311 311 310 311 310 309 309 309 309 309 309 308 309 309 309 308 308 308 308 308 308 307 307 307 307 308 309 308 309 309 308
316 315 315 314 313 313 312 312 311 311 312 311 310 311 311 311 310 310 310 309 309 309 309 309 310 310 309 308 308 308 309 309 308 308 308 308 309 308 309 309 309 309
315 315 315 314 313 313 312 312 312 312 312 311 311 311 311 311 311 311 310 310 310 310 310 310 311 312 311 310 310 310 311 311 310 309 309 309 310 310 309 309 309 309
315 315 314 314 313 313 312 312 312 312 312 311 311 311 311 311 312 311 311 311 311 311 311 311 312 312 312 312 311 311 312 312 312 311 310 310 310 310 313 310 310 310
315 315 314 314 313 313 313 312 312 312 311 311 312 311 310 311 312 312 312 311 312 312 312 313 314 314 313 313 313 313 313 313 313 312 312 312 312 312 311 311 311 310
315 314 314 314 314 314 314 313 312 312 312 312 312 311 311 311 311 312 313 312 312 313 314 315 315 315 315 314 314 314 314 314 313 312 311 312 311 311 311 311 312 311
315 314 314 314 314 314 314 313 313 312 312 312 312 311 311 311 312 313 313 313 314 315 316 316 316 315 315 314 314 314 314 313 313 312 312 311 311 311 311 311 312 312
315 315 315 315 315 315 314 314 314 314 313 313 313 312 313 312 313 314 314 313 314 316 316 316 316 316 315 315 314 314 313 313 312 312 312 312 311 309 309 310 310 310
315 315 315 315 314 315 314 313 314 315 314 313 313 313 314 314 314 314 314 314 314 315 316 316 315 315 314 309 310 315 313 313 312 311 311 312 311 309 309 310 310 309
312 312 313 314 314 313 312 313 313 314 314 314 314 314 314 313 313 313 314 314 314 315 315 315 315 314 306 301 303 306 313 313 313 312 311 311 311 310 310 309 308 308
310 310 310 311 311 312 312 311 310 310 311 312 312 313 313 313 313 314 314 314 314 314 314 313 313 309 301 299 299 300 306 313 313 313 312 311 312 311 310 309 308 308
311 310 308 308 308 308 308 310 310 310 308 309 311 312 312 312 312 313 313 314 314 313 312 312 312 304 298 297 297 296 297 307 313 313 312 312 311 311 310 309 308 307
311 309 308 307 307 307 307 307 306 307 306 306 308 309 310 309 309 310 310 311 311 311 310 310 309 303 296 297 297 297 295 300 312 312 312 312 312 311 311 310 309 308
311 310 310 309 307 307 306 307 305 303 306 306 307 308 307 306 306 308 308 308 309 309 309 308 306 297 296 297 297 296 295 296 311 312 312 311 311 311 311 310 309 309
310 311 311 311 309 307 306 306 304 303 305 304 305 304 303 303 304 306 306 307 307 308 306 308 302 294 295 296 296 296 295 306 311 311 311 310 309 310 310 310 309 309
303 305 305 307 308 307 306 305 305 306 306 304 307 304 305 305 305 305 306 307 306 306 306 304 302 295 294 294 295 294 297 307 309 309 308 308 308 309 310 310 309 308
297 297 297 298 298 299 301 304 305 304 304 304 305 304 305 304 304 305 304 305 306 305 305 305 304 297 293 294 294 293 298 307 308 308 306 306 305 306 308 309 308 306
296 295 295 295 295 296 297 299 300 304 305 305 305 305 304 303 304 305 304 302 304 305 307 305 304 302 294 293 293 293 296 305 307 307 306 303 304 303 303 305 306 306
296 296 295 295 294 294 295 296 298 299 301 305 305 306 305 303 304 304 304 303 302 303 304 304 303 303 297 292 293 292 293 301 306 307 306 304 303 304 303 302 302 303
Wind_Speed
8 7 7 7 7 7 7 7 6 7 6 5 6 5 5 5 5 5 5 5 5 6 5 5 5 5 5 5 4 5 5 5 5 4 4 4 5 6 6 6 5 5
6 7 6 6 6 5 6 7 7 7 7 5 5 5 4 5 4 5 6 6 5 6 5 5 5 5 5 5 4 6 5 4 5 3 4 5 4 5 6 6 6 5
7 6 8 9 8 7 7 4 5 6 6 5 4 4 5 3 6 3 4 6 6 6 5 5 5 5 5 5 4 5 5 5 5 4 5 6 4 5 5 5 5 5
6 7 8 7 7 8 6 6 3 4 4 5 4 3 4 4 4 5 4 5 6 5 5 5 5 5 6 5 5 6 5 5 4 3 5 5 5 4 5 5 5 5
8 6 5 6 5 6 6 7 6 5 5 5 4 3 5 5 5 5 5 5 5 5 4 5 5 5 5 5 5 6 5 5 4 3 5 5 4 4 3 5 6 6
5 6 7 7 7 8 6 6 6 6 6 5 5 4 4 5 6 5 5 6 4 5 5 4 5 4 5 5 5 6 5 6 4 4 6 5 4 4 4 5 6 7
7 7 7 6 7 6 7 6 5 5 6 6 5 4 5 6 6 6 6 6 5 4 5 5 5 5 4 5 5 5 4 5 5 6 7 4 4 5 5 5 5 7
8 6 8 7 8 7 7 7 6 6 6 5 6 5 5 6 6 5 5 6 6 5 5 5 5 5 4 5 6 6 4 3 4 6 6 5 4 5 5 4 5 6
7 7 8 9 9 7 7 6 6 6 5 7 5 5 3 5 6 6 6 5 5 5 4 4 5 5 4 5 5 5 5 3 3 4 5 5 5 4 5 4 6 6
7 7 9 9 9 7 7 6 6 6 5 6 6 5 6 3 5 6 6 5 5 4 5 5 5 4 4 4 6 6 5 5 4 4 4 5 5 5 4 5 5 5
6 7 7 8 8 7 7 6 6 6 5 6 6 5 4 5 3 5 6 6 6 6 6 6 6 6 5 5 5 5 5 5 5 4 4 4 4 4 3 5 4 5
6 5 6 7 8 7 8 7 6 6 5 4 6 6 4 4 6 5 6 6 6 6 6 6 6 6 6 6 6 6 5 5 5 5 4 5 4 4 4 4 6 5
4 3 5 5 6 7 7 6 7 6 6 6 5 5 6 5 3 5 3 5 5 5 5 5 5 5 5 5 6 6 6 6 6 5 5 5 4 4 3 3 4 5
7 3 1 2 3 4 6 6 5 5 5 4 4 5 5 6 6 5 4 3 4 4 4 4 5 5 5 5 5 5 6 6 6 6 6 5 5 4 3 3 3 3
6 5 4 3 3 5 4 3 4 3 4 4 4 4 5 5 5 4 4 3 3 4 5 5 5 5 5 6 6 5 4 5 5 6 6 6 5 4 2 2 1 1
6 9 6 5 4 2 2 2 3 3 4 4 4 4 4 3 3 3 4 4 4 3 4 5 5 5 6 9 8 7 7 5 4 5 5 6 6 5 3 1 1 1
6 5 3 7 6 6 4 1 3 2 2 3 3 4 3 3 3 4 3 3 4 4 5 5 4 5 11 11 10 10 7 7 7 6 5 5 5 6 5 3 1 2
5 5 5 5 4 2 3 5 4 4 2 1 3 3 2 3 3 3 2 2 2 3 4 5 5 4 8 10 10 9 7 7 6 6 5 5 5 5 4 4 4 3
4 5 5 5 5 4 4 3 3 4 4 4 3 1 2 3 2 1 0 0 1 3 4 3 3 4 7 9 10 9 8 6 6 6 6 6 5 5 5 5 5 4
5 6 5 5 5 5 3 3 3 3 4 3 2 2 0 1 2 2 2 2 2 3 4 4 3 5 4 3 1 2 1 1 4 5 5 6 6 6 6 7 7 7
6 5 5 5 3 1 2 2 2 2 2 1 1 0 1 2 1 1 2 1 1 2 2 1 1 3 2 1 2 4 5 2 3 4 5 5 5 6 7 7 7 7
6 5 5 4 4 4 5 4 4 3 2 1 1 2 2 2 1 2 3 4 5 3 2 1 1 3 4 4 3 3 2 3 4 4 5 5 5 6 6 6 7 7
9 8 8 7 6 6 5 4 4 5 4 3 2 1 0 1 2 1 2 2 1 2 4 4 4 4 6 5 4 4 2 3 4 4 4 5 5 6 6 6 7 7
10 10 9 8 9 8 7 6 4 1 2 2 2 3 3 4 4 4 3 2 0 2 3 4 4 3 7 7 7 8 7 5 5 5 5 5 5 4 5 5 6 9
8 9 9 9 9 9 8 8 6 5 4 3 3 2 1 3 2 2 3 1 1 1 3 3 4 5 6 8 9 7 6 4 5 5 5 4 5 4 3 4 5 7
8 9 9 9 8 7 8 8 7 7 7 5 4 2 2 1 1 1 2 2 2 3 2 1 3 5 3 2 3 4 5 4 4 5 7 6 5 5 5 4 5 5
Wind_Direction
148 144 142 141 144 144 147 148 154 146 156 159 159 167 157 160 146 133 131 119 114 110 107 102 103 98 92 90 96 92 82 89 72 55 85 106 113 128 131 140 140 138
142 133 126 122 123 135 146 154 157 153 159 165 162 142 149 138 146 143 138 118 103 99 96 95 90 99 99 97 101 101 89 83 76 49 79 82 84 102 117 136 134 126
129 133 142 148 153 158 156 157 152 153 152 158 141 138 138 141 134 120 122 119 108 99 94 100 93 84 89 90 85 84 91 84 77 57 74 65 55 85 107 118 116 135
143 155 157 153 150 150 147 135 127 121 112 128 153 142 125 126 118 115 103 101 106 102 104 97 103 93 94 95 96 81 81 74 59 62 82 63 51 78 98 106 107 100
155 158 151 144 139 135 140 141 146 148 147 135 117 118 115 118 114 112 108 101 110 115 113 111 100 102 103 96 104 99 81 83 48 59 77 71 40 64 76 104 112 109
158 155 152 146 147 144 145 151 150 144 133 132 141 118 119 126 128 127 126 121 122 127 124 116 107 98 99 103 93 96 109 95 78 88 77 72 61 41 66 101 114 112
161 156 149 139 137 147 145 148 148 146 144 141 124 134 137 128 129 133 132 133 138 145 138 132 119 100 92 102 97 97 82 100 89 90 93 68 80 59 45 73 95 108
161 151 143 144 147 154 150 153 156 151 145 140 147 160 147 138 138 141 141 144 146 149 141 130 113 107 111 109 109 97 76 64 91 94 90 77 75 76 58 55 68 85
140 146 148 154 154 157 155 155 153 147 152 146 149 153 156 145 146 146 145 146 141 145 132 118 115 114 119 114 108 106 105 76 90 109 112 103 86 80 74 84 76 72
137 147 152 154 154 152 151 157 152 152 151 149 153 153 152 146 141 141 138 140 137 135 134 130 126 128 124 120 122 122 116 117 107 107 109 118 126 124 97 85 104 88
137 148 151 151 150 151 152 150 152 148 151 150 146 154 148 137 135 139 138 146 152 156 152 152 157 150 140 123 115 119 130 132 131 129 129 124 125 131 122 118 105 113
135 143 154 156 154 153 151 152 151 151 149 154 157 151 146 147 150 163 165 167 166 166 165 164 162 161 154 146 139 134 127 131 136 130 133 130 129 126 128 129 119 123
71 108 157 160 158 150 142 144 154 155 154 165 164 153 152 149 155 162 187 163 168 160 164 166 160 145 140 141 141 142 146 145 138 132 131 125 114 113 101 102 117 133
133 111 50 86 102 123 135 139 141 151 155 147 143 151 160 161 166 179 177 164 167 165 162 154 150 145 141 143 144 147 148 150 144 141 135 118 106 83 83 82 78 91
118 109 113 109 125 119 107 124 128 128 132 151 167 167 175 177 173 159 154 153 151 161 159 160 159 165 162 155 144 132 129 146 150 148 145 135 115 88 51 52 38 74
136 146 147 144 162 132 52 79 98 125 146 163 181 187 178 167 154 151 165 177 163 174 181 175 173 167 171 167 158 159 160 155 148 154 153 147 138 119 103 120 167 181
47 44 101 144 159 142 133 105 89 105 153 179 178 174 164 150 150 168 190 190 186 181 199 216 207 183 166 172 171 156 157 163 171 174 161 159 160 155 151 147 55 39
54 72 56 39 42 65 130 140 115 86 74 99 170 169 149 121 141 178 185 208 220 213 211 214 218 208 170 174 178 172 166 169 170 170 174 178 172 160 151 158 154 135
58 54 48 47 47 38 19 33 57 68 64 48 12 339 131 144 144 120 295 25 205 242 250 257 253 228 192 183 185 180 174 166 176 172 174 184 177 166 157 162 160 147
64 59 55 50 55 41 32 47 47 60 63 59 40 0 73 74 69 79 55 33 2 331 318 338 348 350 320 317 1 87 107 239 189 184 185 180 184 173 165 166 171 163
60 53 56 53 60 147 98 66 79 86 75 88 126 114 83 88 109 102 106 111 160 198 243 25 72 63 118 103 151 167 177 201 209 185 178 184 179 174 174 174 177 173
39 56 63 56 31 22 32 16 7 26 44 359 133 119 112 104 78 118 159 185 185 168 155 236 18 86 121 138 165 188 183 218 217 202 193 183 173 176 177 178 174 166
38 44 38 27 22 26 17 9 3 1 8 13 21 27 70 223 232 267 333 320 184 151 153 194 222 164 153 160 150 140 131 240 236 221 202 189 190 182 181 176 172 166
41 46 45 40 37 26 11 359 356 24 37 46 44 17 10 333 355 338 346 35 135 185 200 200 254 200 187 181 179 170 177 210 221 209 202 186 181 182 178 178 176 168
39 46 46 45 41 28 22 17 8 1 348 26 64 73 39 340 357 334 306 62 84 157 179 187 225 236 186 187 179 184 193 221 215 209 194 195 169 172 181 167 168 168
32 38 41 42 39 35 31 30 17 24 14 14 33 46 96 78 341 249 278 306 42 78 97 201 260 301 35 194 213 185 198 227 239 208 206 194 189 177 172 190 186 170